Tracking 29892 objects as of 21-Nov-2024
HD Live streaming from Space Station
objects crossing your sky now

STARLINK-6029

Track STARLINK-6029 now!
10-day predictions
STARLINK-6029 is classified as:


NORAD ID: 56803
Int'l Code: 2023-078AN
Perigee: 577.1 km
Apogee: 581.3 km
Inclination: 70.0 °
Period: 96.1 minutes
Semi major axis: 6950 km
RCS: Unknown
Launch date: May 31, 2023
Source: United States (US)
Launch site: AIR FORCE WESTERN TEST RANGE (AFWTR)
Your satellite tracking list
Your tracking list is empty




NASA's NSSDC Master Catalog

Two Line Element Set (TLE):
1 56803U 23078AN  24325.77924928 -.00000268  00000-0 -14674-4 0  9990
2 56803  69.9981  99.3290 0003036 284.8419  75.2404 14.98329670 81691
Source of the keplerian elements: AFSPC